CZ-6A DEB, 61822

Orbit data source: Space-Track

CZ-6A DEB, 61822 is space debris in LEO originally from a launch on Tue, 06 Aug 2024 UTC launched from the Taiyaun Space Center, China (TSC). Debris objects in space refer to the collection of defunct objects orbiting the Earth. Examples of debris include non-operational satellites, rocket bodies, and fragments generated from explosions, collisions, or faulty payload assembly.

Loading next visibility...
Identifier
61822, 2024-140ACN
Orbit
LEO
Country
Flag of CNCN / PRC
Related business
Manufacturer
SAST
Mission
Spacecraft
Bus & Motor
Unknown
Mass
Unknown
Launch date (UTC)
2024-08-06 (2 years ago)
Launch vehicle
Unknown
Launch site
Taiyaun Space Center, China (TSC)
Object type
Payload
Rocket body
Debris
Shape & HBR
Unknown shape, 0.1 m
Radar Cross Section
Small (<0.1 m²)

Expand to show TLE details & history
Last TLE update: 2 days ago

TLE from 2 days ago
0 CZ-6A DEB
1 61822U 24140ACN 26170.29897391  .00001516  00000-0  80807-3 0  9993
2 61822  89.2349 294.4374 0130279 183.6659 176.3584 14.08667192 91704
Epoch: 2026-06-19T07:10Z
TLE epoch observation values (Epoch: 2026-06-19T07:10:31.345Z)
Latitude
-0.00008°
Longitude
-80.72315°
Altitude
961.158 km
Speed
7.323 km/s
True Right ascension
19h 37m 44s
True Declination
0° 00' 00"
Sunlit
Object was in full shadow at epoch
Visualization orbit readout
Latitude
Unknown
Longitude
Unknown
Altitude
Unknown
Speed
Unknown
Apparent Right ascension
Unknown
Apparent Declination
Unknown
Sunlit
N/A
Visualization observer readout
Local Sidereal Time
07:19:37
Azimuth
Unknown
Elevation
Unknown
Doppler factor
Unknown
Orbital elements
Apogee altitude
955.211 km
Perigee altitude
766.592 km
Semi-major axis
7,239.039 km
Eccentricity
0.01303
Inclination
89.2349°
RAAN
294.4374°
Arg. of periapsis
183.6659°
True anomaly
176.4517°
Mean anomaly
176.3584°
Eccentric anomaly
176.4052°
Mean motion
3.52389 °/min
Orbital period
102.16 mins
BSTAR
0.00080807
Loading maneuver chart data...
Computing Atmospheric mass density...
Loading historical data...
Loading historical data...
Loading historical data...
Loading historical data...
Loading historical data...
Loading historical data...
Loading historical data...

Documentation

Showing up to 5 results
|